Selinsgrove, PA

7:59 PM EST on December 06, 2019 (GMT -0500)
Penn Valley

Weather History for KSEG - October, 2019

Change the Weather History Date:

Sunday, October 27, 2019

  Actual Average (KIPT) Record (KIPT)
Temperature  
Mean Temperature 63 °F -  
Max Temperature 73 °F 56 °F 81 °F (1963)
Min Temperature 54 °F 36 °F 23 °F (1930)
Degree Days  
Heating Degree Days 2    
Growing Degree Days 13 (Base 50)    
Moisture  
Dew Point 53 °F    
Average Humidity 82    
Maximum Humidity 100    
Minimum Humidity 52    
Precipitation  
Precipitation 1.25 in - - ()
Sea Level Pressure  
Sea Level Pressure 29.87 in    
Wind  
Wind Speed 7 mph (South)    
Max Wind Speed 16 mph    
Max Gust Speed 23 mph    
Visibility 8 miles    
Events Rain    
Averages and records for this station are not official NWS values.
T = Trace of Precipitation, MM = Missing Value Source: NWS Daily Summary

Daily Weather History Graph

Daily Weather History Graph

Search for Another Location

Airport or City:

Astronomy

Oct. 27, 2019 Rise Set
Actual Time 7:31 AM EDT 6:10 PM EDT
Civil Twilight 7:03 AM EDT 6:38 PM EDT
Nautical Twilight 6:31 AM EDT 7:10 PM EDT
Astronomical Twilight 5:59 AM EDT 7:42 PM EDT
Moon 6:37 AM EDT (10/27) 6:18 PM EDT (10/27)
Length of Visible Light 11h 34m
Length of Day
10h 38m
Waning Crescent, 0% of the Moon is Illuminated
Oct 27
Waning Crescent
Oct 27
New
Nov 4
First Quarter
Nov 12
Full
Nov 19
Last Quarter

Hourly Weather History & Observations

Time (EDT) Temp. Dew Point Humidity Pressure Visibility Wind Dir Wind Speed Gust Speed Precip Events Conditions
12:32 AM 54.0 °F 48.9 °F 83% 30.10 in 10.0 mi SE 6.9 mph - N/A   Overcast
12:39 AM 54.0 °F 48.9 °F 83% 30.09 in 10.0 mi SE 6.9 mph - 0.00 in Rain Light Rain
12:53 AM 54.0 °F 48.9 °F 83% 30.08 in 10.0 mi SE 8.1 mph - 0.00 in   Overcast
1:04 AM 54.0 °F 48.9 °F 83% 30.09 in 10.0 mi SE 5.8 mph - N/A   Overcast
1:53 AM 55.0 °F 50.0 °F 83% 30.08 in 9.0 mi SE 4.6 mph - 0.01 in Rain Light Rain
2:53 AM 54.0 °F 50.0 °F 86% 30.04 in 10.0 mi SSE 10.4 mph - 0.02 in   Overcast
3:53 AM 54.0 °F 51.1 °F 90% 29.97 in 10.0 mi SSE 16.1 mph 23.0 mph 0.06 in Rain Light Rain
4:33 AM 55.0 °F 51.1 °F 86% 29.96 in 10.0 mi SSE 8.1 mph - 0.00 in   Overcast
4:53 AM 55.0 °F 52.0 °F 89% 29.94 in 6.0 mi SE 11.5 mph 18.4 mph 0.04 in Rain Light Rain
5:27 AM 55.9 °F 52.0 °F 87% 29.91 in 7.0 mi SSE 11.5 mph 21.9 mph 0.02 in Rain Light Rain
5:53 AM 55.9 °F 53.1 °F 90% 29.89 in 7.0 mi SSE 11.5 mph - 0.04 in Rain Rain
6:53 AM 55.9 °F 54.0 °F 93% 29.86 in 6.0 mi SSE 5.8 mph - 0.10 in Rain Light Rain
7:05 AM 57.0 °F 54.0 °F 89% 29.84 in 10.0 mi SSE 11.5 mph 21.9 mph 0.01 in Rain Light Rain
7:53 AM 57.0 °F 55.0 °F 93% 29.80 in 7.0 mi SSE 9.2 mph - 0.02 in Rain Light Rain
8:00 AM 57.9 °F 55.0 °F 90% 29.80 in 9.0 mi SSE 8.1 mph - 0.01 in Rain Light Rain
8:28 AM 57.9 °F 55.9 °F 93% 29.80 in 2.5 mi Variable 3.5 mph - 0.12 in Rain Heavy Rain
8:38 AM 57.9 °F 55.9 °F 93% 29.82 in 1.8 mi Variable 4.6 mph - 0.22 in Rain Heavy Rain
8:53 AM 57.0 °F 55.9 °F 96% 29.81 in 1.2 mi NNW 4.6 mph - 0.45 in Rain Heavy Rain
9:08 AM 57.0 °F 57.0 °F 100% 29.85 in 1.0 mi Variable 5.8 mph 19.6 mph 0.26 in Rain Heavy Rain
9:27 AM 57.0 °F 57.0 °F 100% 29.81 in 1.2 mi ESE 10.4 mph - 0.49 in Rain Rain
9:33 AM 57.0 °F 57.0 °F 100% 29.80 in 3.0 mi East 9.2 mph - 0.50 in Rain Rain
9:41 AM 57.0 °F 57.0 °F 100% 29.78 in 9.0 mi ESE 3.5 mph - 0.50 in Rain Light Rain
9:53 AM 57.9 °F 57.0 °F 97% 29.79 in 8.0 mi WNW 3.5 mph - 0.51 in Rain Light Rain
10:36 AM 61.0 °F 57.9 °F 90% 29.78 in 10.0 mi Calm Calm - 0.00 in   Overcast
10:53 AM 61.0 °F 57.9 °F 90% 29.78 in 10.0 mi Calm Calm - 0.00 in   Overcast
11:53 AM 63.0 °F 59.0 °F 87% 29.77 in 10.0 mi Variable 3.5 mph - N/A   Mostly Cloudy
12:40 PM 64.9 °F 60.1 °F 84% 29.76 in 10.0 mi Variable 3.5 mph - N/A   Mostly Cloudy
12:51 PM 66.2 °F 60.8 °F 83% 29.75 in 10.0 mi SW 5.8 mph - N/A   Mostly Cloudy
12:53 PM 66.9 °F 60.1 °F 79% 29.75 in 10.0 mi Variable 4.6 mph - N/A   Mostly Cloudy
1:09 PM 68.0 °F 60.1 °F 76% 29.75 in 10.0 mi SSW 9.2 mph - N/A   Mostly Cloudy
1:17 PM 68.0 °F 60.1 °F 76% 29.75 in 10.0 mi Variable 4.6 mph - N/A   Scattered Clouds
1:53 PM 69.1 °F 59.0 °F 70% 29.73 in 10.0 mi SSW 6.9 mph - N/A   Partly Cloudy
2:53 PM 72.0 °F 55.9 °F 57% 29.73 in 10.0 mi Variable 5.8 mph - N/A   Mostly Cloudy
3:53 PM 70.0 °F 52.0 °F 53% 29.77 in 10.0 mi West 10.4 mph 16.1 mph N/A   Overcast
4:53 PM 66.9 °F 48.9 °F 52% 29.82 in 10.0 mi WNW 10.4 mph 19.6 mph N/A   Mostly Cloudy
5:53 PM 63.0 °F 48.9 °F 60% 29.86 in 10.0 mi Variable 6.9 mph - N/A   Overcast
6:53 PM 62.1 °F 48.0 °F 60% 29.91 in 10.0 mi WNW 12.7 mph - N/A   Overcast
7:53 PM 60.1 °F 46.9 °F 62% 29.95 in 10.0 mi WNW 12.7 mph 18.4 mph N/A   Overcast
8:53 PM 59.0 °F 46.0 °F 62% 29.97 in 10.0 mi NW 4.6 mph - N/A   Overcast
9:53 PM 59.0 °F 46.0 °F 62% 29.99 in 10.0 mi WNW 6.9 mph - N/A   Overcast
10:53 PM 57.0 °F 46.0 °F 67% 30.00 in 10.0 mi Calm Calm - N/A   Overcast
11:53 PM 55.0 °F 46.0 °F 72% 30.01 in 10.0 mi Calm Calm - N/A   Mostly Cloudy